Back to catalog

METEOR 2-8 DEB

AlivePO
NORAD 36861·DEBRIS·🇷🇺 Russia

Launched Mar 25, 1982 from Plesetsk Cosmodrome

Loading…

Next Passes (next 24 hours)

TLE

AgingSource: Space-Track

Epoch: Sep 6, 2026, 08:38 UTC

1 36861U 82025AY  26249.35979339  .00001849  00000-0  69654-3 0  9997
2 36861  82.5018 113.9639 0025176 171.0979 189.0659 14.30854095677611

Track METEOR 2-8 DEB in real time with AllMySat

Download on the App Store